When you browse on this site, cookies collect data to enhance your experience and personalize the content and advertising you see.
Visit our Privacy Policy to learn more. By continuing to use the site, you agree to this use of cookies and data.

Stündliche Wetter Saidpur

Heute, 10 August, Montag

Zeit Temperatur Niederschläge Wind Luftdruck Luftfeuchtigkeit
00:00 +31°C° 0 mm 2 m/S 748 mmHg 82%
01:00 +31°C° 1 mm 2 m/S 748 mmHg 83%
02:00 +30°C° 1 mm 2 m/S 748 mmHg 84%
03:00 +30°C° 1 mm 2 m/S 748 mmHg 85%
04:00 +30°C° 1 mm 2 m/S 748 mmHg 85%
05:00 +30°C° 1 mm 2 m/S 748 mmHg 86%
06:00 +30°C° 1 mm 3 m/S 748 mmHg 86%
07:00 +31°C° 0.6 mm 3 m/S 749 mmHg 82%
08:00 +31°C° 0.6 mm 3 m/S 749 mmHg 77%
09:00 +33°C° 0.6 mm 4 m/S 749 mmHg 73%
10:00 +34°C° 0.7 mm 3 m/S 749 mmHg 69%
11:00 +35°C° 0.7 mm 3 m/S 749 mmHg 66%
12:00 +36°C° 0.7 mm 3 m/S 749 mmHg 62%
13:00 +36°C° 1.3 mm 3 m/S 748 mmHg 61%
14:00 +36°C° 1.3 mm 3 m/S 747 mmHg 61%
15:00 +36°C° 1.3 mm 2 m/S 747 mmHg 60%
16:00 +36°C° 0.4 mm 2 m/S 746 mmHg 62%
17:00 +36°C° 0.4 mm 2 m/S 746 mmHg 63%
18:00 +36°C° 0.4 mm 2 m/S 746 mmHg 65%
19:00 +35°C° 0.5 mm 3 m/S 747 mmHg 70%
20:00 +34°C° 0.5 mm 3 m/S 747 mmHg 75%
21:00 +33°C° 0.5 mm 3 m/S 748 mmHg 79%
22:00 +31°C° 0.2 mm 3 m/S 748 mmHg 81%
23:00 +31°C° 0.2 mm 3 m/S 748 mmHg 82%

Morgen, 11 August, Dienstag

Zeit Temperatur Niederschläge Wind Luftdruck Luftfeuchtigkeit
00:00 +31°C° 0.2 mm 3 m/S 748 mmHg 84%
01:00 +31°C° 0.1 mm 3 m/S 747 mmHg 85%
02:00 +30°C° 0.1 mm 3 m/S 747 mmHg 86%
03:00 +30°C° 0.1 mm 3 m/S 746 mmHg 87%
04:00 +30°C° 1 mm 3 m/S 747 mmHg 88%
05:00 +30°C° 1 mm 3 m/S 747 mmHg 88%
06:00 +30°C° 1 mm 3 m/S 747 mmHg 89%
07:00 +30°C° 2 mm 3 m/S 747 mmHg 88%
08:00 +30°C° 2 mm 2 m/S 748 mmHg 86%
09:00 +30°C° 2 mm 2 m/S 748 mmHg 85%
10:00 +31°C° 1 mm 2 m/S 748 mmHg 84%
11:00 +31°C° 1 mm 2 m/S 748 mmHg 83%
12:00 +31°C° 1 mm 3 m/S 748 mmHg 82%
13:00 +31°C° 0.3 mm 3 m/S 747 mmHg 83%
14:00 +32°C° 0.3 mm 4 m/S 747 mmHg 83%
15:00 +32°C° 0.3 mm 4 m/S 746 mmHg 83%
16:00 +32°C° 0.1 mm 4 m/S 746 mmHg 84%
17:00 +32°C° 0.1 mm 4 m/S 746 mmHg 84%
18:00 +32°C° 0.1 mm 4 m/S 746 mmHg 84%
19:00 +30°C° 0.3 mm 4 m/S 747 mmHg 86%
20:00 +30°C° 0.3 mm 4 m/S 747 mmHg 88%
21:00 +29°C° 0.3 mm 5 m/S 748 mmHg 89%
22:00 +29°C° 0.9 mm 4 m/S 748 mmHg 90%
23:00 +29°C° 0.9 mm 4 m/S 748 mmHg 90%

übermorgen, 12 August, Mittwoch

Zeit Temperatur Niederschläge Wind Luftdruck Luftfeuchtigkeit
00:00 +29°C° 0.9 mm 4 m/S 748 mmHg 91%
01:00 +29°C° 1.7 mm 4 m/S 748 mmHg 91%
02:00 +29°C° 1.7 mm 3 m/S 747 mmHg 91%
03:00 +29°C° 1.7 mm 3 m/S 747 mmHg 91%
04:00 +29°C° 1.7 mm 3 m/S 747 mmHg 91%
05:00 +29°C° 1.7 mm 3 m/S 747 mmHg 91%
06:00 +29°C° 1.7 mm 2 m/S 747 mmHg 92%
07:00 +29°C° 1.4 mm 2 m/S 748 mmHg 90%
08:00 +30°C° 1.4 mm 2 m/S 748 mmHg 88%
09:00 +30°C° 1.4 mm 2 m/S 749 mmHg 87%
10:00 +31°C° 1.2 mm 2 m/S 748 mmHg 81%
11:00 +33°C° 1.2 mm 3 m/S 748 mmHg 76%
12:00 +35°C° 1.2 mm 3 m/S 748 mmHg 70%
13:00 +34°C° 1 mm 3 m/S 748 mmHg 71%
14:00 +34°C° 1 mm 3 m/S 747 mmHg 72%
15:00 +34°C° 1 mm 3 m/S 746 mmHg 74%
16:00 +33°C° 0.4 mm 4 m/S 746 mmHg 76%
17:00 +33°C° 0.4 mm 4 m/S 746 mmHg 78%
18:00 +33°C° 0.4 mm 4 m/S 746 mmHg 80%
19:00 +32°C° 0.1 mm 4 m/S 746 mmHg 82%
20:00 +32°C° 0.1 mm 4 m/S 747 mmHg 84%
21:00 +30°C° 0.1 mm 3 m/S 748 mmHg 86%
22:00 +30°C° 2.1 mm 3 m/S 748 mmHg 88%
23:00 +30°C° 2.1 mm 3 m/S 748 mmHg 90%

13 August, Donnerstag

Zeit Temperatur Niederschläge Wind Luftdruck Luftfeuchtigkeit
00:00 +29°C° 2.1 mm 3 m/S 748 mmHg 91%
01:00 +29°C° 2.1 mm 3 m/S 747 mmHg 91%
02:00 +29°C° 2.1 mm 2 m/S 747 mmHg 92%
03:00 +29°C° 2.1 mm 2 m/S 746 mmHg 92%
04:00 +29°C° 2.3 mm 2 m/S 746 mmHg 92%
05:00 +29°C° 2.3 mm 3 m/S 746 mmHg 92%
06:00 +29°C° 2.3 mm 3 m/S 746 mmHg 92%
07:00 +29°C° 1 mm 3 m/S 747 mmHg 89%
08:00 +30°C° 1 mm 3 m/S 747 mmHg 86%
09:00 +31°C° 1 mm 3 m/S 748 mmHg 84%
10:00 +33°C° 1 mm 3 m/S 748 mmHg 79%
11:00 +34°C° 1 mm 4 m/S 748 mmHg 73%
12:00 +35°C° 1 mm 4 m/S 747 mmHg 68%
13:00 +36°C° 1.5 mm 4 m/S 747 mmHg 67%
14:00 +36°C° 1.5 mm 4 m/S 746 mmHg 67%
15:00 +36°C° 1.5 mm 4 m/S 745 mmHg 66%
16:00 +36°C° 1.2 mm 3 m/S 745 mmHg 68%
17:00 +35°C° 1.2 mm 3 m/S 744 mmHg 70%
18:00 +35°C° 1.2 mm 2 m/S 744 mmHg 73%
19:00 +34°C° 0.8 mm 3 m/S 745 mmHg 76%
20:00 +33°C° 0.8 mm 3 m/S 746 mmHg 79%
21:00 +31°C° 0.8 mm 3 m/S 746 mmHg 82%
22:00 +31°C° 0.9 mm 3 m/S 746 mmHg 82%
23:00 +31°C° 0.9 mm 3 m/S 746 mmHg 83%

14 August, Freitag

Zeit Temperatur Niederschläge Wind Luftdruck Luftfeuchtigkeit
00:00 +31°C° 0.9 mm 3 m/S 746 mmHg 84%
01:00 +30°C° 1.7 mm 3 m/S 746 mmHg 84%
02:00 +30°C° 1.7 mm 3 m/S 745 mmHg 84%
03:00 +30°C° 1.7 mm 3 m/S 745 mmHg 84%
04:00 +30°C° 3.4 mm 3 m/S 745 mmHg 87%
05:00 +29°C° 3.4 mm 4 m/S 745 mmHg 89%
06:00 +29°C° 3.4 mm 5 m/S 745 mmHg 92%
07:00 +29°C° 1.3 mm 4 m/S 746 mmHg 89%
08:00 +30°C° 1.3 mm 3 m/S 746 mmHg 86%
09:00 +31°C° 1.3 mm 3 m/S 747 mmHg 84%
10:00 +33°C° 1 mm 3 m/S 746 mmHg 78%
11:00 +34°C° 1 mm 4 m/S 746 mmHg 71%
12:00 +36°C° 1 mm 4 m/S 746 mmHg 65%
13:00 +36°C° 0.4 mm 4 m/S 745 mmHg 63%
14:00 +36°C° 0.4 mm 4 m/S 745 mmHg 62%
15:00 +37°C° 0.4 mm 4 m/S 744 mmHg 60%
16:00 +36°C° 0.1 mm 3 m/S 744 mmHg 62%
17:00 +36°C° 0.1 mm 3 m/S 744 mmHg 65%
18:00 +35°C° 0.1 mm 3 m/S 744 mmHg 68%
19:00 +34°C° 0.8 mm 3 m/S 744 mmHg 72%
20:00 +34°C° 0.8 mm 3 m/S 745 mmHg 75%
21:00 +33°C° 0.8 mm 3 m/S 746 mmHg 79%
22:00 +31°C° 1.3 mm 3 m/S 746 mmHg 80%
23:00 +31°C° 1.3 mm 3 m/S 746 mmHg 81%

15 August, Samstag

Zeit Temperatur Niederschläge Wind Luftdruck Luftfeuchtigkeit
00:00 +31°C° 1.3 mm 3 m/S 746 mmHg 83%
01:00 +30°C° 2.6 mm 4 m/S 745 mmHg 85%
02:00 +30°C° 2.6 mm 4 m/S 745 mmHg 86%
03:00 +29°C° 2.6 mm 5 m/S 744 mmHg 88%
04:00 +29°C° 0.5 mm 4 m/S 745 mmHg 89%
05:00 +29°C° 0.5 mm 4 m/S 745 mmHg 90%
06:00 +29°C° 0.5 mm 3 m/S 745 mmHg 91%
07:00 +30°C° 0.4 mm 3 m/S 745 mmHg 88%
08:00 +30°C° 0.4 mm 4 m/S 745 mmHg 85%
09:00 +32°C° 0.4 mm 4 m/S 746 mmHg 82%
10:00 +33°C° 0.1 mm 4 m/S 745 mmHg 77%
11:00 +34°C° 0.1 mm 4 m/S 745 mmHg 73%
12:00 +35°C° 0.1 mm 4 m/S 745 mmHg 68%
13:00 +35°C° 0.6 mm 4 m/S 744 mmHg 67%
14:00 +36°C° 0.6 mm 4 m/S 744 mmHg 65%
15:00 +36°C° 0.6 mm 4 m/S 743 mmHg 63%
16:00 +36°C° 0.7 mm 4 m/S 743 mmHg 67%
17:00 +35°C° 0.7 mm 4 m/S 743 mmHg 70%
18:00 +34°C° 0.7 mm 4 m/S 743 mmHg 73%
19:00 +34°C° 1.5 mm 4 m/S 744 mmHg 76%
20:00 +33°C° 1.5 mm 4 m/S 745 mmHg 78%
21:00 +32°C° 1.5 mm 4 m/S 746 mmHg 81%
22:00 +32°C° 0.9 mm 4 m/S 746 mmHg 82%
23:00 +32°C° 0.9 mm 4 m/S 746 mmHg 83%
Mehr zeigen